Location: Bellflower
(33.8817°N, 118.1170°W)
Time: 13:43:08
(UTC+00:00)

SL-4 R/B - Pass Details

Date: 23 November 2020
Orbit: 428 x 664 km, 51.6° (Epoch: 21 January)

Event Time Altitude Azimuth Distance (km) Brightness Sun altitude
Exits shadow 12:50:38 20° 2° (N) 1,246 3.7 -21.0°
Drops below altitude 10° 12:52:18 10° 23° (NNE) 1,711 4.7 -20.7°
Sets 12:54:40 0° 37° (NE) 2,553 5.8 -20.2°
